Search the data

BODC Cruise Metadata Report for RRS Shackleton cruise S2/81

Introduction

This report collates information from the BODC cruise inventory and oceanographic databases. It presents

Cruise Inventory Information

Long name RRS Shackleton cruise S2/81
Short name S2/81
Objectives and Narrative Study of the upwelling area off the North West African coast between 19N and 24N. Specific activities were:
(1) Deployment of current meter moorings
(2) Coarse grid CTD survey with fine-resolution surveys of frontal features located.
(3) Drogued buoy deployment and tracking
Ship RRS Shackleton
Departure Port
Departure Date 1981-10-14
Arrival Port
Arrival Date 1981-11-17
Principal Scientist(s) Peter Hughes (University of Liverpool Department of Oceanography)
Responsible Organisation University of Liverpool Department of Oceanography
Associated Project(s)
IHB Sea Areas Visited North East Atlantic Ocean (limit 40W)
Marsden Squares Visited 39;498/75;2/75;456
Work Area Description
Work Area Bounding Polygon 19N,30W; 26N,30W; 26N,25W; 19N,25W; 19N,30W
Southern Limit 19N
Northern Limit 26N
Western Limit 30W
Eastern Limit 25W

Cruise Inventory Datasets

Physical oceanography  
CTD stations Quantity: number of stations = 143
Description:  
Current meters Quantity: 3
Description: 3 recovery by "Discovery" in april 1982  
Surface measurements underway (T,S) Description:  
Chemical oceanography  
Nitrate Quantity: 110
Description:  
Nitrite Quantity: 110
Description:  
Phosphate Quantity: 110
Description:  

Cruise Inventory Mooring/Buoy Operations

No information on datasets is currently available

Summary of BODC Data Holdings for the Cruise

National Oceanographic Database

Summary

# Series Instrument Description Parameters
140 CTD/STD cast Salinity of the water column
Temperature of the water column
Vertical spatial coordinates

Note: Parameter terms are taken from the BODC Parameter Discovery Vocabulary XML (SKOS)

Full List

BODC Reference Instrument Description Date/Time Location  
76889 CTD/STD cast 1981-10-28 16:48Z to 1981-10-28 17:04Z 26° 0' N, 16° 25' W Click for more
76890 CTD/STD cast 1981-10-29 01:15Z to 1981-10-29 01:34Z 25° 0' N, 16° 52' W Click for more
76908 CTD/STD cast 1981-10-29 09:48Z to 1981-10-29 10:06Z 24° 0' N, 17° 21' W Click for more
76921 CTD/STD cast 1981-10-29 14:25Z to 1981-10-29 14:43Z 23° 31' N, 17° 33' W Click for more
76933 CTD/STD cast 1981-10-29 20:36Z to 1981-10-29 21:07Z 22° 52' N, 17° 46' W Click for more
76945 CTD/STD cast 1981-10-30 00:56Z to 1981-10-30 01:16Z 22° 30' N, 18° 0' W Click for more
76957 CTD/STD cast 1981-10-30 05:40Z to 1981-10-30 05:51Z 22° 0' N, 18° 13' W Click for more
76969 CTD/STD cast 1981-10-30 10:09Z to 1981-10-30 10:28Z 21° 30' N, 18° 25' W Click for more
76982 CTD/STD cast 1981-10-30 21:04Z to 1981-10-30 21:19Z 20° 30' N, 18° 26' W Click for more
76994 CTD/STD cast 1981-10-31 01:22Z to 1981-10-31 01:45Z 20° 0' N, 18° 26' W Click for more
77008 CTD/STD cast 1981-10-31 06:38Z to 1981-10-31 06:57Z 19° 30' N, 18° 26' W Click for more
77021 CTD/STD cast 1981-10-31 11:09Z to 1981-10-31 11:32Z 19° 0' N, 18° 25' W Click for more
77033 CTD/STD cast 1981-10-31 16:32Z to 1981-10-31 16:58Z 19° 30' N, 18° 42' W Click for more
77045 CTD/STD cast 1981-10-31 22:29Z to 1981-10-31 22:52Z 20° 0' N, 18° 58' W Click for more
77057 CTD/STD cast 1981-11-01 03:37Z to 1981-11-01 03:48Z 20° 30' N, 19° 14' W Click for more
77069 CTD/STD cast 1981-11-01 08:44Z to 1981-11-01 09:06Z 21° 0' N, 19° 29' W Click for more
77070 CTD/STD cast 1981-11-01 13:50Z to 1981-11-01 14:06Z 21° 30' N, 19° 44' W Click for more
77082 CTD/STD cast 1981-11-01 22:22Z to 1981-11-01 22:42Z 22° 0' N, 19° 57' W Click for more
77094 CTD/STD cast 1981-11-02 02:16Z to 1981-11-02 02:36Z 22° 0' N, 19° 28' W Click for more
77101 CTD/STD cast 1981-11-02 06:57Z to 1981-11-02 07:22Z 22° 0' N, 18° 57' W Click for more
77113 CTD/STD cast 1981-11-02 11:38Z to 1981-11-02 11:58Z 21° 58' N, 18° 22' W Click for more
77125 CTD/STD cast 1981-11-02 15:01Z to 1981-11-02 15:16Z 22° 0' N, 18° 16' W Click for more
77137 CTD/STD cast 1981-11-02 16:33Z to 1981-11-02 16:52Z 22° 0' N, 18° 10' W Click for more
77149 CTD/STD cast 1981-11-02 18:23Z to 1981-11-02 18:42Z 22° 0' N, 18° 3' W Click for more
77150 CTD/STD cast 1981-11-02 19:54Z to 1981-11-02 20:16Z 22° 0' N, 17° 57' W Click for more
77162 CTD/STD cast 1981-11-02 21:36Z to 1981-11-02 21:56Z 22° 0' N, 17° 51' W Click for more
77174 CTD/STD cast 1981-11-03 15:03Z to 1981-11-03 15:28Z 21° 58' N, 18° 13' W Click for more
77186 CTD/STD cast 1981-11-03 15:48Z to 1981-11-03 16:12Z 21° 59' N, 18° 12' W Click for more
77198 CTD/STD cast 1981-11-03 17:23Z to 1981-11-03 18:19Z 21° 59' N, 18° 12' W Click for more
77205 CTD/STD cast 1981-11-03 23:03Z to 1981-11-03 23:25Z 21° 50' N, 18° 1' W Click for more
77217 CTD/STD cast 1981-11-04 19:59Z to 1981-11-04 20:24Z 21° 51' N, 18° 0' W Click for more
77229 CTD/STD cast 1981-11-04 20:56Z to 1981-11-04 21:20Z 21° 52' N, 18° 3' W Click for more
77230 CTD/STD cast 1981-11-04 21:40Z to 1981-11-04 22:02Z 21° 52' N, 18° 3' W Click for more
77242 CTD/STD cast 1981-11-05 20:28Z to 1981-11-05 20:52Z 22° 9' N, 17° 59' W Click for more
77254 CTD/STD cast 1981-11-05 21:12Z to 1981-11-05 21:35Z 22° 9' N, 18° 0' W Click for more
77266 CTD/STD cast 1981-11-05 22:07Z to 1981-11-05 22:31Z 22° 9' N, 18° 0' W Click for more
77278 CTD/STD cast 1981-11-06 01:29Z to 1981-11-06 01:54Z 22° 1' N, 18° 23' W Click for more
77291 CTD/STD cast 1981-11-06 04:08Z to 1981-11-06 04:29Z 21° 59' N, 18° 37' W Click for more
77309 CTD/STD cast 1981-11-06 06:25Z to 1981-11-06 06:46Z 22° 0' N, 18° 50' W Click for more
77310 CTD/STD cast 1981-11-06 07:54Z to 1981-11-06 08:12Z 22° 0' N, 18° 48' W Click for more
77322 CTD/STD cast 1981-11-06 08:54Z to 1981-11-06 09:15Z 22° 0' N, 18° 48' W Click for more
77334 CTD/STD cast 1981-11-06 10:00Z to 1981-11-06 10:17Z 21° 59' N, 18° 48' W Click for more
77346 CTD/STD cast 1981-11-06 11:37Z to 1981-11-06 12:00Z 22° 0' N, 18° 46' W Click for more
77358 CTD/STD cast 1981-11-06 12:50Z to 1981-11-06 13:09Z 21° 59' N, 18° 46' W Click for more
77371 CTD/STD cast 1981-11-06 14:01Z to 1981-11-06 14:18Z 21° 58' N, 18° 45' W Click for more
77383 CTD/STD cast 1981-11-06 15:10Z to 1981-11-06 15:32Z 21° 58' N, 18° 45' W Click for more
77395 CTD/STD cast 1981-11-06 16:27Z to 1981-11-06 16:56Z 21° 57' N, 18° 44' W Click for more
77402 CTD/STD cast 1981-11-06 17:36Z to 1981-11-06 17:58Z 21° 58' N, 18° 44' W Click for more
77414 CTD/STD cast 1981-11-06 18:36Z to 1981-11-06 18:57Z 21° 58' N, 18° 43' W Click for more
77426 CTD/STD cast 1981-11-06 20:01Z to 1981-11-06 20:21Z 21° 59' N, 18° 41' W Click for more
77438 CTD/STD cast 1981-11-06 21:00Z to 1981-11-06 21:21Z 21° 59' N, 18° 40' W Click for more
77451 CTD/STD cast 1981-11-06 22:00Z to 1981-11-06 22:21Z 21° 59' N, 18° 39' W Click for more
77463 CTD/STD cast 1981-11-06 23:11Z to 1981-11-06 23:35Z 21° 59' N, 18° 39' W Click for more
77475 CTD/STD cast 1981-11-07 00:17Z to 1981-11-07 00:42Z 21° 59' N, 18° 38' W Click for more
77487 CTD/STD cast 1981-11-07 01:39Z to 1981-11-07 01:58Z 21° 59' N, 18° 36' W Click for more
77499 CTD/STD cast 1981-11-07 03:07Z to 1981-11-07 03:30Z 21° 59' N, 18° 35' W Click for more
77506 CTD/STD cast 1981-11-07 06:02Z to 1981-11-07 06:26Z 22° 0' N, 18° 35' W Click for more
77518 CTD/STD cast 1981-11-07 07:18Z to 1981-11-07 07:41Z 22° 0' N, 18° 32' W Click for more
77531 CTD/STD cast 1981-11-07 08:50Z to 1981-11-07 09:12Z 22° 1' N, 18° 31' W Click for more
77543 CTD/STD cast 1981-11-07 10:01Z to 1981-11-07 10:25Z 22° 1' N, 18° 30' W Click for more
77555 CTD/STD cast 1981-11-07 11:28Z to 1981-11-07 11:47Z 22° 1' N, 18° 29' W Click for more
77567 CTD/STD cast 1981-11-07 12:33Z to 1981-11-07 12:55Z 22° 1' N, 18° 28' W Click for more
77579 CTD/STD cast 1981-11-07 13:46Z to 1981-11-07 14:08Z 22° 1' N, 18° 26' W Click for more
77580 CTD/STD cast 1981-11-07 15:18Z to 1981-11-07 15:43Z 22° 1' N, 18° 25' W Click for more
77592 CTD/STD cast 1981-11-07 16:30Z to 1981-11-07 16:55Z 22° 1' N, 18° 23' W Click for more
77611 CTD/STD cast 1981-11-07 17:45Z to 1981-11-07 18:09Z 22° 2' N, 18° 21' W Click for more
77623 CTD/STD cast 1981-11-07 19:30Z to 1981-11-07 19:48Z 22° 3' N, 18° 20' W Click for more
77635 CTD/STD cast 1981-11-07 20:32Z to 1981-11-07 20:54Z 22° 4' N, 18° 18' W Click for more
77647 CTD/STD cast 1981-11-07 21:44Z to 1981-11-07 22:03Z 22° 4' N, 18° 17' W Click for more
77659 CTD/STD cast 1981-11-07 23:13Z to 1981-11-07 23:34Z 22° 4' N, 18° 16' W Click for more
77660 CTD/STD cast 1981-11-08 00:22Z to 1981-11-08 00:47Z 22° 4' N, 18° 15' W Click for more
77672 CTD/STD cast 1981-11-08 03:30Z to 1981-11-08 03:49Z 22° 7' N, 18° 15' W Click for more
77684 CTD/STD cast 1981-11-08 04:59Z to 1981-11-08 05:20Z 22° 8' N, 18° 13' W Click for more
77696 CTD/STD cast 1981-11-08 06:06Z to 1981-11-08 06:28Z 22° 8' N, 18° 11' W Click for more
77703 CTD/STD cast 1981-11-08 07:27Z to 1981-11-08 07:47Z 22° 7' N, 18° 9' W Click for more
77715 CTD/STD cast 1981-11-08 08:58Z to 1981-11-08 09:16Z 22° 7' N, 18° 7' W Click for more
77727 CTD/STD cast 1981-11-08 10:09Z to 1981-11-08 10:31Z 22° 6' N, 18° 6' W Click for more
77739 CTD/STD cast 1981-11-08 11:39Z to 1981-11-08 12:01Z 22° 4' N, 18° 5' W Click for more
77740 CTD/STD cast 1981-11-08 13:15Z to 1981-11-08 13:38Z 22° 4' N, 18° 4' W Click for more
77752 CTD/STD cast 1981-11-08 14:38Z to 1981-11-08 15:02Z 22° 4' N, 18° 3' W Click for more
77764 CTD/STD cast 1981-11-08 15:52Z to 1981-11-08 16:20Z 22° 4' N, 18° 1' W Click for more
77776 CTD/STD cast 1981-11-08 17:29Z to 1981-11-08 18:07Z 22° 3' N, 17° 59' W Click for more
77788 CTD/STD cast 1981-11-08 19:05Z to 1981-11-08 19:25Z 22° 1' N, 17° 57' W Click for more
77807 CTD/STD cast 1981-11-08 20:48Z to 1981-11-08 21:09Z 22° 0' N, 17° 54' W Click for more
77819 CTD/STD cast 1981-11-09 01:14Z to 1981-11-09 01:36Z 22° 0' N, 18° 29' W Click for more
77820 CTD/STD cast 1981-11-09 02:51Z to 1981-11-09 03:18Z 22° 0' N, 18° 36' W Click for more
77832 CTD/STD cast 1981-11-09 04:29Z to 1981-11-09 04:49Z 21° 58' N, 18° 42' W Click for more
77844 CTD/STD cast 1981-11-09 06:18Z to 1981-11-09 06:39Z 21° 59' N, 18° 48' W Click for more
77856 CTD/STD cast 1981-11-09 11:05Z to 1981-11-09 11:24Z 22° 0' N, 18° 33' W Click for more
77868 CTD/STD cast 1981-11-09 12:05Z to 1981-11-09 12:31Z 22° 0' N, 18° 33' W Click for more
77881 CTD/STD cast 1981-11-09 13:16Z to 1981-11-09 13:35Z 22° 0' N, 18° 33' W Click for more
77893 CTD/STD cast 1981-11-09 14:07Z to 1981-11-09 14:29Z 22° 0' N, 18° 33' W Click for more
77900 CTD/STD cast 1981-11-09 15:08Z to 1981-11-09 15:23Z 22° 0' N, 18° 33' W Click for more
77912 CTD/STD cast 1981-11-09 16:03Z to 1981-11-09 16:30Z 22° 0' N, 18° 33' W Click for more
77924 CTD/STD cast 1981-11-09 17:06Z to 1981-11-09 17:32Z 22° 0' N, 18° 33' W Click for more
77936 CTD/STD cast 1981-11-09 18:10Z to 1981-11-09 18:31Z 22° 0' N, 18° 33' W Click for more
77948 CTD/STD cast 1981-11-09 19:01Z to 1981-11-09 19:24Z 22° 0' N, 18° 33' W Click for more
77961 CTD/STD cast 1981-11-09 21:07Z to 1981-11-09 21:24Z 22° 0' N, 18° 33' W Click for more
77973 CTD/STD cast 1981-11-09 22:02Z to 1981-11-09 22:20Z 22° 0' N, 18° 33' W Click for more
77985 CTD/STD cast 1981-11-09 23:00Z to 1981-11-09 23:22Z 22° 0' N, 18° 33' W Click for more
77997 CTD/STD cast 1981-11-10 00:05Z to 1981-11-10 00:27Z 22° 0' N, 18° 33' W Click for more
78000 CTD/STD cast 1981-11-10 01:02Z to 1981-11-10 01:17Z 22° 0' N, 18° 33' W Click for more
78012 CTD/STD cast 1981-11-10 02:05Z to 1981-11-10 02:29Z 22° 0' N, 18° 33' W Click for more
78024 CTD/STD cast 1981-11-10 09:16Z to 1981-11-10 09:32Z 22° 0' N, 18° 33' W Click for more
78036 CTD/STD cast 1981-11-10 10:01Z to 1981-11-10 10:21Z 22° 0' N, 18° 33' W Click for more
78048 CTD/STD cast 1981-11-10 11:02Z to 1981-11-10 11:23Z 22° 1' N, 18° 33' W Click for more
78061 CTD/STD cast 1981-11-10 12:12Z to 1981-11-10 12:27Z 22° 1' N, 18° 33' W Click for more
78073 CTD/STD cast 1981-11-10 13:06Z to 1981-11-10 13:27Z 22° 1' N, 18° 33' W Click for more
78085 CTD/STD cast 1981-11-10 14:03Z to 1981-11-10 14:17Z 22° 1' N, 18° 33' W Click for more
78097 CTD/STD cast 1981-11-10 15:01Z to 1981-11-10 15:20Z 22° 1' N, 18° 33' W Click for more
78104 CTD/STD cast 1981-11-10 16:04Z to 1981-11-10 16:28Z 22° 1' N, 18° 33' W Click for more
78116 CTD/STD cast 1981-11-10 17:01Z to 1981-11-10 17:29Z 22° 1' N, 18° 34' W Click for more
78128 CTD/STD cast 1981-11-10 18:00Z to 1981-11-10 18:18Z 22° 0' N, 18° 33' W Click for more
78141 CTD/STD cast 1981-11-10 19:02Z to 1981-11-10 19:26Z 22° 0' N, 18° 33' W Click for more
78153 CTD/STD cast 1981-11-10 20:02Z to 1981-11-10 20:24Z 22° 1' N, 18° 34' W Click for more
78165 CTD/STD cast 1981-11-10 21:00Z to 1981-11-10 21:24Z 22° 1' N, 18° 34' W Click for more
78177 CTD/STD cast 1981-11-10 23:48Z to 1981-11-11 00:07Z 22° 9' N, 18° 26' W Click for more
78189 CTD/STD cast 1981-11-11 02:22Z to 1981-11-11 02:42Z 22° 25' N, 18° 27' W Click for more
78190 CTD/STD cast 1981-11-11 05:25Z to 1981-11-11 05:50Z 22° 34' N, 18° 10' W Click for more
78208 CTD/STD cast 1981-11-11 07:54Z to 1981-11-11 08:14Z 22° 34' N, 17° 58' W Click for more
78221 CTD/STD cast 1981-11-11 10:04Z to 1981-11-11 10:28Z 22° 33' N, 17° 48' W Click for more
78233 CTD/STD cast 1981-11-11 11:58Z to 1981-11-11 12:17Z 22° 33' N, 17° 37' W Click for more
78245 CTD/STD cast 1981-11-11 14:07Z to 1981-11-11 14:24Z 22° 22' N, 17° 43' W Click for more
78257 CTD/STD cast 1981-11-11 16:12Z to 1981-11-11 16:34Z 22° 11' N, 17° 48' W Click for more
78269 CTD/STD cast 1981-11-11 18:25Z 22° 0' N, 17° 52' W Click for more
78270 CTD/STD cast 1981-11-11 20:08Z to 1981-11-11 20:27Z 22° 3' N, 17° 56' W Click for more
78282 CTD/STD cast 1981-11-11 21:15Z to 1981-11-11 21:34Z 22° 5' N, 17° 56' W Click for more
78294 CTD/STD cast 1981-11-11 22:22Z to 1981-11-11 22:43Z 22° 6' N, 17° 56' W Click for more
78301 CTD/STD cast 1981-11-11 23:32Z to 1981-11-11 23:50Z 22° 8' N, 17° 57' W Click for more
78313 CTD/STD cast 1981-11-12 00:57Z to 1981-11-12 01:12Z 22° 10' N, 17° 57' W Click for more
78325 CTD/STD cast 1981-11-12 02:03Z to 1981-11-12 02:17Z 22° 12' N, 17° 58' W Click for more
78337 CTD/STD cast 1981-11-12 03:06Z to 1981-11-12 03:27Z 22° 13' N, 17° 58' W Click for more
78349 CTD/STD cast 1981-11-12 04:17Z to 1981-11-12 04:38Z 22° 15' N, 17° 58' W Click for more
78350 CTD/STD cast 1981-11-12 06:25Z to 1981-11-12 06:48Z 22° 16' N, 17° 57' W Click for more
78362 CTD/STD cast 1981-11-12 07:48Z to 1981-11-12 08:07Z 22° 20' N, 17° 57' W Click for more
78374 CTD/STD cast 1981-11-12 09:44Z to 1981-11-12 10:04Z 22° 24' N, 17° 57' W Click for more
78386 CTD/STD cast 1981-11-12 10:46Z to 1981-11-12 11:05Z 22° 26' N, 17° 57' W Click for more
78398 CTD/STD cast 1981-11-12 11:46Z to 1981-11-12 12:04Z 22° 28' N, 17° 57' W Click for more
78405 CTD/STD cast 1981-11-12 12:58Z to 1981-11-12 13:16Z 22° 30' N, 17° 56' W Click for more
78417 CTD/STD cast 1981-11-12 14:42Z to 1981-11-12 15:10Z 22° 31' N, 17° 55' W Click for more

Project Database

No data currently held for this cruise in the BODC Project Database

References

Track Charts

Track Chart

Track Chart

Track Chart

Reports

No reports currently available